Printer-friendly version

IAU Minor Planet Center

Minor Planet Center

MPEC 2000-R44: 2000 RN77

The following Minor Planet Electronic Circular may be linked-to from your own Web pages, but must not otherwise be redistributed electronically.


Read MPEC 2000-R43 Read MPEC 2000-R45


M.P.E.C. 2000-R44                                Issued 2000 Sept. 10, 17:24 UT

     The Minor Planet Electronic Circulars contain information on unusual
         minor planets and routine data on comets.  They are published
   on behalf of Commission 20 of the International Astronomical Union by the
          Minor Planet Center, Smithsonian Astrophysical Observatory,
                          Cambridge, MA 02138, U.S.A.

             Prepared using the Tamkin Foundation Computer Network

             BMARSDEN@CFA.HARVARD.EDU or GWILLIAMS@CFA.HARVARD.EDU
          URL http://cfa-www.harvard.edu/iau/mpc.html  ISSN 1523-6714

                                   2000 RN77

Observations:
     K00R77N* C2000 09 08.28850 22 54 32.07 +39 19 59.3          19.0        704
     K00R77N  C2000 09 08.30214 22 54 27.68 +39 20 11.2          18.9        704
     K00R77N  C2000 09 08.31575 22 54 23.28 +39 20 23.4          18.5        704
     K00R77N  C2000 09 08.32943 22 54 18.91 +39 20 34.3          18.6        704
     K00R77N  C2000 09 08.87775 22 51 29.78 +39 28 03.8          18.0 R      046
     K00R77N  C2000 09 08.87887 22 51 29.45 +39 28 04.9                      046
     K00R77N  C2000 09 08.88054 22 51 28.93 +39 28 06.5                      046
     K00R77N  C2000 09 08.88144 22 51 28.69 +39 28 06.8                      046
     K00R77N  C2000 09 08.88248 22 51 28.35 +39 28 08.0          17.8 R      046
     K00R77N  C2000 09 08.88758 22 51 26.64 +39 28 10.9                      557
     K00R77N  C2000 09 08.88885 22 51 26.22 +39 28 12.4                      557
     K00R77N  C2000 09 08.89014 22 51 25.82 +39 28 13.1          18.9 V      557
     K00R77N  C2000 09 08.95763 22 51 04.06 +39 29 08.7                      118
     K00R77N  C2000 09 08.95938 22 51 03.53 +39 29 10.0                      118
     K00R77N  C2000 09 08.96153 22 51 02.83 +39 29 12.1                      118
     K00R77N  C2000 09 09.22687 22 49 41.17 +39 32 44.9          19.2 V      853
     K00R77N  C2000 09 09.23554 22 49 38.29 +39 32 51.8          19.0 V      853
     K00R77N  C2000 09 09.80513 22 46 41.08 +39 39 36.7                      557
     K00R77N  C2000 09 09.80816 22 46 40.14 +39 39 38.8                      557
     K00R77N  C2000 09 09.81424 22 46 38.16 +39 39 42.8          18.8 V      557
     K00R77N  C2000 09 09.83481 22 46 31.69 +39 39 58.2          18.2 V      595
     K00R77N  C2000 09 09.83876 22 46 30.48 +39 40 01.8                      595
     K00R77N  C2000 09 09.85215 22 46 26.16 +39 40 12.0                      595
     K00R77N  C2000 09 09.85751 22 46 24.49 +39 40 15.8                      595
     K00R77N  C2000 09 09.85752 22 46 24.29 +39 40 15.5          17.8 R      046
     K00R77N  C2000 09 09.85940 22 46 23.70 +39 40 17.2                      046
     K00R77N  C2000 09 09.86021 22 46 23.46 +39 40 17.6                      046
     K00R77N  C2000 09 09.86113 22 46 23.16 +39 40 17.8                      046
     K00R77N  C2000 09 09.86191 22 46 23.01 +39 40 19.7                      595
     K00R77N  C2000 09 09.88019 22 46 17.21 +39 40 30.1          18.9 V      163
     K00R77N  C2000 09 09.88234 22 46 16.47 +39 40 32.1                      163
     K00R77N  C2000 09 09.88696 22 46 14.98 +39 40 35.9                      163
     K00R77N 4C2000 09 10.16250 22 44 49.93 +39 43 45.6                      673
     K00R77N 4C2000 09 10.16472 22 44 49.06 +39 43 47.2                      673
     K00R77N 4C2000 09 10.16782 22 44 48.11 +39 43 49.4                      673

Observer details:
046 Klet.  Observers J. Ticha, M. Tichy, Z. Moravec, M. Kocer.  0.57-m f/5.2
    reflector + CCD.
118 Modra.  Observers L. Kornos, P. Koleny.  0.6-m f/5.5 reflector + CCD.
163 Roeser Observatory, Luxembourg.  Observer M. Dawson.  0.457-m f/4.5
    reflector + CCD.
557 Ondrejov.  Observer L. Sarounova.  0.65-m f/3.6 reflector + CCD.
595 Farra d'Isonzo.  Observers G. Lombardi, E. Pettarin.  0.40-m f/4.5
    reflector + CCD.
673 Table Mountain Observatory, Wrightwood.  Observer M. Hicks.  0.6-m
    reflector + CCD.
704 Lincoln Laboratory ETS, New Mexico.  Observers M. Blythe, F. Shelly,
    M. Bezpalko, M. Elowitz, R. Huber, L. Manguso.  Measurers J. Stuart,
    R. Sayer, J. B. Evans, H. Viggh.  1.0-m f/2.15 reflector + CCD.
853 Biosphere 2 Observatory.  Observer G. J. Garradd.  0.5-m f/8.1 reflector
    + CCD.

Orbital elements:
2000 RN77
Epoch 2000 Aug. 24.0 TT = JDT 2451780.5                 Spahr
M 173.84851              (2000.0)            P               Q
n   1.06073408     Peri.  212.11650     -0.95001838     -0.24063088
a   0.9522077      Node   312.58680     +0.31145193     -0.77440917
e   0.3093056      Incl.   15.67342     -0.02151195     -0.58513863
P   0.93           H   19.4           G   0.15
From 35 observations 2000 Sept. 8-10.

Ephemeris:
2000 RN77                a,e,i = 0.95, 0.31, 16                  q = 0.6577
Date    TT    R. A. (2000) Decl.     Delta      r     Elong.  Phase     V
2000 09 03    23 21.00   +37 37.7    0.312    1.246   134.2    35.4    18.8
2000 09 08    22 56.03   +39 15.7    0.308    1.244   135.0    34.9    18.8
2000 09 13    22 30.02   +40 07.1    0.308    1.241   134.3    35.4    18.8
2000 09 18    22 04.73   +40 11.6    0.311    1.236   132.3    36.9    18.8
2000 09 23    21 41.70   +39 34.9    0.318    1.229   129.3    39.1    18.9
2000 09 28    21 22.03   +38 27.0    0.327    1.222   125.7    41.8    19.0
2000 10 03    21 06.17   +36 59.1    0.338    1.212   121.6    44.6    19.2
2000 10 08    20 54.05   +35 21.5    0.350    1.202   117.5    47.5    19.3
2000 10 13    20 45.30   +33 41.8    0.363    1.189   113.3    50.4    19.4
2000 10 18    20 39.44   +32 04.8    0.377    1.176   109.3    53.1    19.6
2000 10 23    20 36.02   +30 33.3    0.390    1.161   105.4    55.8    19.7
2000 10 28    20 34.65   +29 08.8    0.402    1.144   101.6    58.3    19.8
2000 11 02    20 34.99   +27 52.2    0.413    1.126    98.0    60.8    19.9
2000 11 07    20 36.70   +26 43.7    0.422    1.107    94.5    63.2    20.0
2000 11 12    20 39.51   +25 42.4    0.429    1.086    91.1    65.6    20.1
2000 11 17    20 43.18   +24 47.3    0.435    1.064    87.8    68.2    20.1
2000 11 22    20 47.52   +23 56.9    0.437    1.041    84.5    70.8    20.2
2000 11 27    20 52.38   +23 09.9    0.437    1.017    81.3    73.6    20.2
2000 12 02    20 57.55   +22 24.4    0.434    0.991    78.0    76.6    20.2
2000 12 07    21 02.83   +21 37.9    0.428    0.965    74.7    80.0    20.3
2000 12 12    21 08.00   +20 47.0    0.419    0.938    71.2    83.8    20.3
2000 12 17    21 12.79   +19 47.1    0.406    0.910    67.5    88.1    20.3
2000 12 22    21 16.94   +18 32.3    0.391    0.881    63.4    93.2    20.4

Gareth V. Williams           (C) Copyright 2000 MPC           M.P.E.C. 2000-R44

Read MPEC 2000-R43 Read MPEC 2000-R45


Our Web policy. Index to the CBAT/MPC/ICQ pages.


Valid HTML 4.01!